{"data":{"norad_id":53487,"intl_designator":"2022-099Y","name":"STARLINK-4432","alt_names":[],"object_type":"PAYLOAD","status":"ACTIVE","operator":null,"country":"US","launch_date":"2022-08-12","launch_site_code":"AFWTR","launch_vehicle":null,"mission":null,"orbit_class":"UNKNOWN","rcs_meters":null,"size_class":null,"mass_kg":null,"dimensions":null,"purposes":["comms"],"wikipedia_slug":null,"has_3d_model":false,"image_url":null,"decayed_at":null,"tle_current":{"epoch":"2026-05-24T21:12:00.701280Z","epoch_age_seconds":99323,"freshness":"FRESH","line1":"1 53487U 22099Y   26144.88334145  .00001267  00000+0  91808-4 0  9997","line2":"2 53487  97.4481 265.9494 0001621 154.7788 205.3519 15.05658493207517","mean_motion":15.05658493,"eccentricity":0.0001621,"inclination_deg":97.4481,"raan_deg":265.9494,"arg_perigee_deg":154.7788,"mean_anomaly_deg":205.3519,"bstar":9.1808e-5,"rev_number":20751,"period_min":95.6392174384,"perigee_km":548.36213518323,"apogee_km":550.60807026893,"semimajor_km":6927.6221027261,"source":"CELESTRAK","updated_at":"2026-05-25T13:38:17.434147Z"}}}